Flag Weather past 2 weeks in Kathmandu, Nepal

Now
61 °F

Fog.


Feels Like: 61 °F
Forecast: 46 / 70 °F
Wind: 3 mph from Southeast

Location: Kathmandu Airport

Current Time: Oct 30, 2014 at 9:44:59 PM

Latest Report: Oct 30, 2014 at 8:35 PM


Visibility: 2 mi

Pressure: 30.12 "Hg

Humidity: 88%

Dew point: 57 °F

Location of KathmanduLocation

Historic Weather in Kathmandu — Graph

°F

Kathmandu temperature yesterday

Maximum temperature yesterday: 70 °F (at 12:35 PM)
Minimum temperature yesterday: 52 °F (at 3:35 AM)
Average temperature yesterday: 60 °F

Past Weeks' High & Low Weather Summary

 TemperatureHumidityPressure
High77 °F (Oct 16, 1:35 PM)100% (Oct 19, 4:35 AM)30.30 "Hg (Oct 19, 4:35 AM)
Low52 °F (Oct 22, 5:35 AM)36% (Oct 23, 1:35 PM)30.01 "Hg (Oct 19, 2:35 PM)
Average63 °F78%30.13 "Hg
* Reported Oct 15 8:35 PM — Oct 30 8:35 PM, Kathmandu, Weather by CustomWeather, © 2014

Note: Actual official high and low records may vary slightly from our data, if they occured in-between our weather recording intervals... More about our weather records

Advertising

Kathmandu weather history for previous 24 hours

 ConditionsComfort  
Time TempWeatherWind HumidityBarometerVisibility
8:35 PM
Oct 30
61 °FFog.3 mph88%30.12 "Hg2 mi
7:35 PM61 °FFog.3 mph83%30.12 "Hg2 mi
6:35 PM63 °FFog.6 mph83%30.07 "Hg2 mi
5:35 PM64 °FFog.6 mph78%30.07 "Hg2 mi
4:35 PM66 °FScattered clouds.8 mph73%30.04 "Hg2 mi
3:35 PM70 °FScattered clouds.7 mph60%30.04 "Hg4 mi
2:35 PM72 °FScattered clouds.No wind57%30.04 "Hg4 mi
1:35 PM72 °FPassing clouds.No wind57%30.07 "Hg4 mi
12:35 PM72 °FScattered clouds.No wind57%30.09 "Hg4 mi
11:35 AM70 °FPassing clouds.6 mph57%30.12 "Hg4 mi
10:35 AM68 °FPassing clouds.No wind64%30.15 "Hg4 mi
9:35 AM64 °FPassing clouds.No wind73%30.15 "Hg4 mi
8:35 AM59 °FFog.No wind88%30.15 "Hg2 mi
7:35 AM57 °FFog.No wind88%30.15 "Hg2 mi
6:35 AM55 °FFog.No wind94%30.12 "Hg2 mi
5:35 AM55 °FFog.No wind100%30.09 "Hg2 mi
4:35 AM57 °FFog.No wind94%30.07 "Hg2 mi
3:35 AM55 °FFog.No wind94%30.07 "Hg2 mi
2:35 AM55 °FFog.No wind94%30.07 "Hg2 mi
1:35 AM55 °FFog.No wind94%30.07 "Hg3 mi
12:35 AM55 °FFog.No wind94%30.09 "Hg3 mi
11:35 PM
Oct 29
55 °FFog.No wind94%30.09 "Hg3 mi
10:35 PM57 °FFog.No wind88%30.09 "Hg3 mi
9:35 PM57 °FFog.No wind88%30.09 "Hg3 mi
Weather by CustomWeather, © 2014

See weather overviewHow to use our weather pages